Location: Monteux
(44.0348°N, 4.9972°E)
Time: 17:13:26
(UTC+00:00)

Cosmos 2239 Rocket - Pass Details

Date: 30 November 2020
Orbit: 955 x 990 km, 82.9° (Epoch: 22 January)

Event Time Altitude Azimuth Distance (km) Brightness Sun altitude
Rises 18:11:45 0° 352° (N) 3,648 7.5 -22.5°
Reaches altitude 10° 18:14:15 10° 354° (N) 2,701 6.8 -22.9°
Maximum altitude 18:20:27 79° 81° (E) 985 4.3 -24.0°
Drops below altitude 10° 18:26:39 10° 169° (S) 2,703 6.8 -25.1°
Sets 18:29:09 0° 170° (S) 3,651 7.5 -25.6°
